FW9789 Weather Reports


Display with metric or nautical units.
time (UTC)temp
F
wind
direction
speed
MPH
gust
MPH
rain 1hr
in
rain 24hr
in
rain mn
in
humidity
%
barometer
mb
20260506051005 45 45 2.0 6.0 0.84 1.03 1.03 17 1010.8
20260506045006 44 0 3.0 10.0 0.84 1.03 1.03 17 1010.5
20260506044006 44 90 3.0 10.0 0.84 1.03 1.03 17 1010.4
20260506035005 41 45 2.0 13.0 0.00 1.03 1.03 17 1010.1
20260506034006 41 0 3.0 12.0 0.00 1.03 1.03 17 1009.7
20260506033006 40 270 3.0 12.0 0.00 1.03 1.03 17 1009.7
20260506032005 40 45 4.0 9.0 0.00 1.03 1.03 17 1009.7
20260506025006 39 45 5.0 13.0 0.00 1.03 1.03 17 1009.6
20260506024006 39 45 5.0 12.0 0.00 1.03 1.03 17 1009.6
20260506023005 38 45 3.0 13.0 0.00 1.03 1.03 17 1009.6
20260506022005 39 0 5.0 13.0 0.00 1.03 1.03 17 1009.4
20260506021005 39 45 6.0 10.0 0.00 1.03 1.03 17 1009.5
20260506015005 39 45 5.0 13.0 0.00 1.03 1.03 17 1009.2
20260506014005 39 90 6.0 14.0 0.00 1.03 1.03 17 1009.3
20260506013006 39 90 6.0 12.0 0.00 1.03 1.03 17 1009.1
20260506011006 38 0 4.0 10.0 0.84 1.03 1.03 17 1008.9
20260506004011 39 90 3.0 9.0 0.84 1.03 1.03 17 1008.9
20260506003005 44 90 4.0 9.0 0.84 1.03 1.03 17 1007.5
20260506002005 39 135 4.0 7.0 0.00 1.03 1.03 17 1008.7
20260505235006 39 90 6.0 13.0 0.00 1.03 1.03 17 1008.3
20260505234006 40 0 4.0 10.0 0.00 1.03 1.03 17 1008.3
20260505233006 40 45 3.0 10.0 0.00 1.03 1.03 17 1008.3
20260505232006 40 90 3.0 10.0 0.00 1.03 1.03 17 1008.3
20260505225006 39 45 3.0 10.0 0.00 1.03 1.03 17 1008.3
20260505224006 39 45 3.0 7.0 0.00 1.03 1.03 17 1008.2
20260505223006 39 90 1.0 6.0 0.00 1.03 1.03 17 1008.1
20260505222005 39 135 1.0 10.0 0.00 1.03 1.03 17 1008.2
20260505221006 40 45 3.0 10.0 0.00 1.03 1.03 17 1008.1
20260505215006 41 45 5.0 10.0 0.00 1.03 1.03 17 1008.2
20260505214006 41 90 6.0 15.0 0.00 1.03 1.03 17 1008.2
20260505213005 40 135 5.0 10.0 0.00 1.03 1.03 17 1008.0
20260505212005 39 0 1.0 8.0 0.00 1.03 1.03 17 1008.1
20260505205006 38 90 1.0 6.0 0.00 1.03 1.03 17 1007.7
20260505204006 38 45 1.0 5.0 0.00 1.03 1.03 17 1007.7
20260505203006 38 90 2.0 5.0 0.00 1.03 1.03 17 1007.7
20260505202005 38 45 0.0 7.0 0.00 1.03 1.03 17 1007.5
20260505194006 39 45 1.0 5.0 0.00 1.03 1.03 17 1007.5
20260505193011 38 45 0.0 2.0 0.00 1.03 1.03 17 1007.3
20260505192006 39 225 0.0 3.0 0.00 1.03 1.03 17 1007.3
20260505184006 42 90 0.0 3.0 0.00 1.03 1.03 17 1007.0
20260505182006 44 90 1.0 3.0 0.84 1.03 1.03 17 1006.9
20260505181006 44 90 1.0 3.0 0.84 1.03 1.03 17 1006.8
20260505175005 44 225 1.0 7.0 0.84 1.03 1.03 17 1006.6
20260505174006 45 90 2.0 12.0 0.84 1.03 1.03 17 1006.4
20260505173006 34 270 3.0 12.0 0.84 1.03 1.03 17 1007.9
20260505171007 44 225 3.0 10.0 0.00 1.03 1.03 17 1006.3
20260505165005 47 0 3.0 8.0 0.00 1.03 1.03 17 1006.4
20260505163007 44 45 6.0 12.0 0.00 1.03 1.03 17 1006.2
20260505161006 46 270 3.0 10.0 0.84 1.03 1.03 17 1005.9
20260505152006 49 270 5.0 13.0 0.00 1.03 1.02 17 1005.7
20260505151007 49 180 5.0 10.0 0.00 1.03 1.02 17 1005.6
20260505125006 49 0 6.0 15.0 0.00 1.02 1.02 17 1003.8
20260505124006 49 0 6.0 15.0 0.00 1.02 1.02 17 1003.3
20260505123006 49 270 6.0 15.0 0.00 1.02 1.02 17 1003.0
20260505115006 49 0 5.0 13.0 0.00 1.02 1.02 17 1004.4
20260505114007 49 90 5.0 12.0 0.00 1.02 1.02 17 1004.4
20260505112006 48 135 5.0 12.0 0.00 1.03 1.02 17 1004.0
20260505111006 48 292 5.0 13.0 0.00 1.03 1.02 17 1003.9
20260505102006 49 270 2.0 10.0 0.00 1.03 1.02 17 1003.6
20260505095006 49 225 2.0 8.0 0.00 1.03 1.02 17 1003.6
20260505094006 47 0 2.0 8.0 0.00 1.03 1.02 17 1003.4
20260505093006 47 270 1.0 8.0 0.00 1.03 1.02 17 1003.4
20260505092006 47 45 2.0 9.0 0.00 1.03 1.02 17 1003.3
20260505091005 49 270 3.0 6.0 0.00 1.03 1.02 17 1003.1
20260505085006 49 45 2.0 7.0 0.00 1.03 1.02 17 1002.8
20260505083006 47 135 2.0 9.0 0.00 1.03 1.02 17 1002.5
20260505082006 47 180 1.0 6.0 0.00 1.03 1.02 17 1002.5
20260505081006 47 135 1.0 3.0 0.00 1.03 1.02 17 1002.1
20260505075006 46 225 3.0 7.0 0.00 1.03 1.02 17 1001.8
20260505074006 46 45 2.0 7.0 0.00 1.03 1.02 17 1001.8
20260505073005 49 45 2.0 6.0 0.00 1.03 1.02 17 1001.6
20260505072006 49 225 2.0 8.0 0.00 1.03 1.02 17 1001.6
20260505071006 47 45 1.0 6.0 0.00 1.03 1.02 17 1001.3
20260505065006 43 225 2.0 6.0 0.00 1.03 1.02 17 1000.5
20260505064006 43 90 1.0 8.0 0.00 1.03 1.02 17 1000.4
20260505063006 43 0 3.0 7.0 0.00 1.03 1.02 17 1000.1
20260505062006 46 45 1.0 7.0 0.00 1.03 1.02 17 999.8
20260505061006 47 0 2.0 7.0 0.00 1.03 1.02 17 1001.3
20260505055006 46 180 1.0 6.0 0.00 1.03 1.02 17 1001.2